20050418,000017,291450,30.915810,-121.455783,15.173,33.157,0.265,0.336
20050418,000047,291480,30.914950,-121.457190,15.169,33.155,0.271,0.343
20050418,000118,291511,30.914083,-121.458591,15.169,33.152,0.265,0.335
20050418,000148,291541,30.913246,-121.459983,15.174,33.143,0.265,0.333
20050418,000218,291571,30.912353,-121.461368,15.178,33.136,0.265,0.331
20050418,000247,291600,30.911525,-121.462765,15.182,33.131,0.259,0.321
20050418,000318,291631,30.910648,-121.464140,15.189,33.124,0.265,0.327
20050418,000347,291660,30.909800,-121.465533,15.195,33.119,0.265,0.326
20050418,000417,291690,30.908920,-121.466900,15.203,33.114,0.265,0.326
20050418,000447,291720,30.908091,-121.468290,15.208,33.116,0.265,0.327
20050418,000518,291751,30.907223,-121.469678,15.212,33.116,0.265,0.329
20050418,000547,291780,30.906365,-121.471073,15.215,33.117,0.265,0.331
20050418,000618,291811,30.905508,-121.472471,15.218,33.117,0.265,0.330
20050418,000647,291840,30.904641,-121.473898,15.215,33.122,0.265,0.327
20050418,000717,291870,30.903791,-121.475320,15.216,33.126,0.265,0.325
20050418,000747,291900,30.902978,-121.476760,15.222,33.126,0.265,0.325
20050418,000817,291930,30.902121,-121.478171,15.219,33.131,0.265,0.327
20050418,000847,291960,30.901290,-121.479608,15.221,33.131,0.265,0.328
20050418,000917,291990,30.900425,-121.481026,15.224,33.132,0.259,0.321
20050418,000947,292020,30.899578,-121.482468,15.229,33.130,0.259,0.323
20050418,001017,292050,30.898731,-121.483886,15.231,33.133,0.259,0.324
20050418,001047,292080,30.897905,-121.485291,15.232,33.131,0.265,0.333
20050418,001117,292110,30.897070,-121.486730,15.235,33.132,0.259,0.325
20050418,001147,292140,30.896186,-121.488150,15.239,33.132,0.259,0.325
20050418,001218,292171,30.895323,-121.489590,15.240,33.135,0.259,0.325
20050418,001247,292200,30.894455,-121.491025,15.244,33.133,0.265,0.333
20050418,001318,292231,30.893606,-121.492463,15.247,33.133,0.265,0.333
20050418,001347,292260,30.892750,-121.493893,15.245,33.137,0.265,0.333
20050418,001417,292290,30.891883,-121.495308,15.246,33.137,0.259,0.325
20050418,001448,292321,30.891056,-121.496738,15.243,33.142,0.265,0.333
20050418,001517,292350,30.890208,-121.498161,15.243,33.145,0.265,0.334
20050418,001548,292381,30.889378,-121.499598,15.245,33.143,0.265,0.334
20050418,001618,292411,30.888500,-121.501016,15.243,33.145,0.259,0.327
20050418,001647,292440,30.887668,-121.502438,15.247,33.143,0.259,0.328
20050418,001717,292470,30.886823,-121.503890,15.248,33.144,0.259,0.327
20050418,001748,292501,30.885988,-121.505340,15.250,33.142,0.265,0.331
20050418,001817,292530,30.885165,-121.506786,15.248,33.145,0.265,0.330
20050418,002256,292809,30.877935,-121.520458,15.238,33.155,0.265,0.319
20050418,002326,292839,30.877136,-121.521916,15.236,33.160,0.265,0.319
20050418,002356,292869,30.876393,-121.523401,15.231,33.159,0.265,0.319
20050418,002426,292899,30.875606,-121.524881,15.232,33.162,0.265,0.318
20050418,002457,292930,30.874810,-121.526363,15.221,33.167,0.265,0.318
20050418,002526,292959,30.874041,-121.527851,15.220,33.165,0.265,0.318
20050418,002556,292989,30.873305,-121.529273,15.211,33.168,0.265,0.319
20050418,002627,293020,30.872518,-121.530808,15.205,33.170,0.259,0.312
20050418,002656,293049,30.871705,-121.532278,15.202,33.169,0.265,0.320
20050418,002726,293079,30.870931,-121.533751,15.195,33.170,0.265,0.319
20050418,002756,293109,30.870131,-121.535203,15.189,33.168,0.259,0.311
20050418,002826,293139,30.869386,-121.536686,15.182,33.170,0.259,0.311
20050418,002857,293170,30.868640,-121.538163,15.181,33.166,0.259,0.311
20050418,002926,293199,30.867876,-121.539608,15.176,33.168,0.265,0.318
20050418,002957,293230,30.867156,-121.541073,15.174,33.164,0.265,0.317
20050418,003026,293259,30.866416,-121.542541,15.177,33.158,0.259,0.309
20050418,003056,293289,30.865630,-121.543996,15.169,33.159,0.265,0.316
20050418,003126,293319,30.864870,-121.545483,15.167,33.156,0.265,0.316
20050418,003156,293349,30.864141,-121.546966,15.177,33.145,0.265,0.316
20050418,003226,293379,30.863418,-121.548480,15.208,33.112,0.265,0.317
20050418,003256,293409,30.862676,-121.549981,15.230,33.097,0.265,0.319
20050418,003326,293439,30.861981,-121.551483,15.265,33.070,0.265,0.320
20050418,003356,293469,30.861286,-121.552975,15.289,33.058,0.259,0.312
20050418,003426,293499,30.860583,-121.554490,15.311,33.055,0.265,0.319
20050418,003456,293529,30.859898,-121.556023,15.328,33.056,0.265,0.318
20050418,003526,293559,30.859201,-121.557538,15.338,33.067,0.259,0.311
20050418,003557,293590,30.858478,-121.559060,15.344,33.079,0.259,0.311
20050418,003627,293620,30.857838,-121.560571,15.348,33.093,0.265,0.318
20050418,003656,293649,30.857190,-121.562105,15.350,33.106,0.265,0.318
20050418,003726,293679,30.856476,-121.563603,15.354,33.117,0.265,0.319
20050418,003756,293709,30.855761,-121.565126,15.355,33.128,0.259,0.312
20050418,003826,293739,30.855083,-121.566593,15.352,33.140,0.259,0.311
20050418,003856,293769,30.854458,-121.568173,15.349,33.151,0.259,0.310
20050418,003926,293799,30.853811,-121.569701,15.341,33.162,0.259,0.309
20050418,003956,293829,30.853188,-121.571238,15.332,33.174,0.259,0.308
20050418,004026,293859,30.852561,-121.572778,15.322,33.182,0.259,0.308
20050418,004056,293889,30.851956,-121.574315,15.318,33.191,0.259,0.308
20050418,004126,293919,30.851300,-121.575841,15.306,33.193,0.259,0.308
20050418,004157,293950,30.850695,-121.577380,15.299,33.197,0.265,0.315
20050418,004226,293979,30.850056,-121.578940,15.292,33.195,0.259,0.308
20050418,004256,294009,30.849445,-121.580500,15.282,33.199,0.259,0.308
20050418,004327,294040,30.848815,-121.582051,15.269,33.201,0.265,0.314
20050418,004356,294069,30.848173,-121.583576,15.260,33.210,0.259,0.306
20050418,004426,294099,30.847536,-121.585131,15.262,33.196,0.265,0.313
20050418,004456,294129,30.846913,-121.586620,15.230,33.213,0.265,0.313
20050418,004526,294159,30.846373,-121.587760,15.223,33.209,0.265,0.313
20050418,004557,294190,30.846078,-121.588446,15.227,33.195,0.265,0.312
20050418,004626,294219,30.845923,-121.588823,15.220,33.194,0.259,0.304
20050418,004656,294249,30.845828,-121.589123,15.215,33.188,0.265,0.311
20050418,004727,294280,30.845803,-121.589315,15.220,33.180,0.259,0.303
20050418,004756,294309,30.845803,-121.589463,15.238,33.161,0.259,0.303
20050418,004826,294339,30.845768,-121.589475,15.250,33.145,0.259,0.303
20050418,004857,294370,30.845723,-121.589418,15.256,33.137,0.259,0.304
20050418,004926,294399,30.845660,-121.589318,15.265,33.129,0.259,0.303
20050418,004956,294429,30.845606,-121.589235,15.272,33.126,0.253,0.296
20050418,005026,294459,30.845546,-121.589221,15.276,33.127,0.259,0.305
20050418,005056,294489,30.845470,-121.589271,15.276,33.133,0.259,0.305
20050418,005126,294519,30.845381,-121.589356,15.275,33.139,0.259,0.305
20050418,005156,294549,30.845271,-121.589538,15.275,33.145,0.259,0.304
20050418,005226,294579,30.845166,-121.589785,15.272,33.151,0.253,0.297
20050418,005256,294609,30.845121,-121.589978,15.270,33.155,0.259,0.304
20050418,005326,294639,30.845083,-121.590126,15.268,33.159,0.253,0.297
20050418,005356,294669,30.845018,-121.590260,15.264,33.163,0.259,0.305
20050418,005426,294699,30.844978,-121.590350,15.264,33.162,0.259,0.305
20050418,005456,294729,30.844948,-121.590415,15.263,33.164,0.259,0.305
20050418,005526,294759,30.844920,-121.590483,15.267,33.165,0.259,0.306
20050418,005556,294789,30.844855,-121.590543,15.269,33.161,0.253,0.298
20050418,005626,294819,30.844736,-121.590580,15.267,33.163,0.253,0.299
20050418,005656,294849,30.844621,-121.590683,15.267,33.161,0.259,0.306
20050418,005726,294879,30.844521,-121.590808,15.268,33.160,0.259,0.306
20050418,005756,294909,30.844431,-121.590950,15.269,33.162,0.259,0.306
20050418,005826,294939,30.844355,-121.591150,15.269,33.161,0.253,0.298
20050418,005856,294969,30.844278,-121.591326,15.269,33.161,0.259,0.305
20050418,005926,294999,30.844230,-121.591451,15.273,33.160,0.259,0.305
20050418,005956,295029,30.844168,-121.591543,15.271,33.161,0.259,0.304
20050418,010026,295059,30.844106,-121.591610,15.270,33.162,0.253,0.297
20050418,010056,295089,30.844126,-121.591668,15.272,33.161,0.259,0.304
20050418,010126,295119,30.844180,-121.591803,15.271,33.162,0.259,0.304
20050418,010156,295149,30.844186,-121.591906,15.274,33.162,0.253,0.297
20050418,010227,295180,30.844195,-121.592018,15.274,33.162,0.253,0.298
20050418,010257,295210,30.844213,-121.592075,15.276,33.159,0.253,0.298
20050418,010327,295240,30.844276,-121.592153,15.274,33.160,0.253,0.297
20050418,010357,295270,30.844286,-121.592258,15.278,33.161,0.253,0.297
20050418,010426,295299,30.844296,-121.592376,15.280,33.160,0.259,0.304
20050418,010456,295329,30.844311,-121.592455,15.281,33.160,0.259,0.303
20050418,010526,295359,30.844290,-121.592555,15.279,33.161,0.259,0.303
20050418,010557,295390,30.844295,-121.592660,15.280,33.162,0.253,0.295
20050418,010627,295420,30.844311,-121.592818,15.281,33.162,0.259,0.302
20050418,010657,295450,30.844315,-121.592936,15.278,33.166,0.259,0.301
20050418,010726,295479,30.844263,-121.593033,15.274,33.166,0.259,0.301
20050418,010757,295510,30.844191,-121.593141,15.276,33.168,0.253,0.293
20050418,010826,295539,30.844173,-121.593215,15.276,33.165,0.253,0.293
20050418,010856,295569,30.844150,-121.593305,15.276,33.167,0.259,0.301
20050418,010926,295599,30.844206,-121.593405,15.278,33.167,0.253,0.294
20050418,010956,295629,30.844268,-121.593490,15.276,33.166,0.259,0.302
20050418,011026,295659,30.844251,-121.593585,15.276,33.168,0.253,0.295
20050418,011056,295689,30.844203,-121.593673,15.278,33.166,0.253,0.295
20050418,011126,295719,30.844101,-121.593786,15.276,33.165,0.253,0.294
20050418,011156,295749,30.844020,-121.593980,15.274,33.169,0.253,0.294
20050418,011226,295779,30.843956,-121.594161,15.273,33.170,0.259,0.301
20050418,011256,295809,30.843908,-121.594355,15.274,33.169,0.259,0.300
20050418,011326,295839,30.843878,-121.594526,15.274,33.167,0.253,0.293
20050418,011356,295869,30.843858,-121.594646,15.274,33.168,0.259,0.299
20050418,011426,295899,30.843833,-121.594740,15.272,33.169,0.259,0.299
20050418,011456,295929,30.843888,-121.594815,15.273,33.168,0.253,0.291
20050418,011526,295959,30.843996,-121.594908,15.278,33.164,0.253,0.291
20050418,011556,295989,30.844018,-121.595001,15.273,33.168,0.253,0.291
20050418,011626,296019,30.843995,-121.595081,15.275,33.167,0.253,0.291
20050418,011656,296049,30.843955,-121.595195,15.273,33.167,0.253,0.291
20050418,011727,296080,30.843910,-121.595356,15.276,33.166,0.259,0.299
20050418,011756,296109,30.843890,-121.595543,15.275,33.166,0.253,0.291
20050418,011826,296139,30.843916,-121.595748,15.269,33.171,0.253,0.291
20050418,011856,296169,30.843941,-121.595895,15.269,33.172,0.259,0.298
20050418,011926,296199,30.844015,-121.596035,15.269,33.171,0.253,0.291
20050418,011956,296229,30.844073,-121.596135,15.270,33.168,0.259,0.298
20050418,012026,296259,30.844066,-121.596201,15.268,33.169,0.259,0.299
20050418,012057,296290,30.844125,-121.596351,15.272,33.168,0.253,0.292
20050418,012126,296319,30.844153,-121.596456,15.272,33.168,0.259,0.299
20050418,012156,296349,30.844190,-121.596533,15.273,33.166,0.253,0.292
20050418,012227,296380,30.844248,-121.596673,15.271,33.168,0.259,0.300
20050418,012256,296409,30.844271,-121.596795,15.269,33.170,0.259,0.300
20050418,012326,296439,30.844271,-121.596915,15.271,33.168,0.253,0.292
20050418,012356,296469,30.844340,-121.597041,15.268,33.171,0.253,0.292
20050418,012426,296499,30.844333,-121.597158,15.271,33.168,0.253,0.292
20050418,012456,296529,30.844275,-121.597278,15.272,33.167,0.253,0.292
20050418,012527,296560,30.844293,-121.597431,15.273,33.167,0.253,0.291
20050418,012556,296589,30.844305,-121.597546,15.270,33.168,0.253,0.291
20050418,012626,296619,30.844293,-121.597630,15.268,33.171,0.259,0.298
20050418,012657,296650,30.844218,-121.597706,15.270,33.167,0.253,0.291
20050418,012726,296679,30.844135,-121.597781,15.272,33.166,0.259,0.298
20050418,012756,296709,30.844081,-121.597858,15.274,33.164,0.253,0.291
20050418,012827,296740,30.844053,-121.597931,15.273,33.166,0.247,0.283
20050418,012857,296770,30.844018,-121.597988,15.272,33.166,0.259,0.297
20050418,012926,296799,30.843973,-121.598110,15.273,33.165,0.259,0.296
20050418,012957,296830,30.843920,-121.598281,15.271,33.167,0.253,0.289
20050418,013027,296860,30.843876,-121.598473,15.273,33.163,0.247,0.282
20050418,013056,296889,30.843838,-121.598608,15.267,33.171,0.259,0.296
20050418,013126,296919,30.843808,-121.598701,15.274,33.164,0.253,0.288
20050418,013157,296950,30.843801,-121.598741,15.268,33.169,0.259,0.295
20050418,013227,296980,30.843793,-121.598713,15.267,33.168,0.253,0.288
20050418,013256,297009,30.843748,-121.598743,15.269,33.169,0.253,0.288
20050418,013327,297040,30.843711,-121.598775,15.271,33.166,0.259,0.295
20050418,013357,297070,30.843643,-121.598886,15.267,33.168,0.253,0.288
20050418,013427,297100,30.843593,-121.599098,15.267,33.167,0.253,0.288
20050418,013457,297130,30.843595,-121.599336,15.269,33.169,0.247,0.281
20050418,013527,297160,30.843611,-121.599483,15.267,33.168,0.253,0.288
20050418,013557,297191,30.843603,-121.599560,15.262,33.175,0.253,0.288
20050418,013627,297220,30.843616,-121.599593,15.262,33.172,0.259,0.295
20050418,013657,297250,30.843625,-121.599681,15.264,33.172,0.253,0.288
20050418,013727,297280,30.843666,-121.599726,15.260,33.173,0.253,0.287
20050418,013757,297310,30.843718,-121.599800,15.263,33.169,0.253,0.287
20050418,013827,297340,30.843768,-121.599920,15.263,33.168,0.253,0.287
20050418,013857,297370,30.843810,-121.600056,15.267,33.167,0.247,0.280
20050418,013927,297400,30.843830,-121.600165,15.264,33.169,0.247,0.280
20050418,013957,297430,30.843860,-121.600216,15.266,33.166,0.259,0.294
20050418,014027,297460,30.843876,-121.600301,15.268,33.166,0.253,0.287
20050418,014057,297490,30.843906,-121.600396,15.267,33.165,0.253,0.287
20050418,014128,297521,30.843915,-121.600483,15.266,33.167,0.253,0.287
20050418,014157,297550,30.843891,-121.600583,15.269,33.165,0.253,0.287
20050418,014227,297580,30.843891,-121.600628,15.267,33.168,0.253,0.287
20050418,014257,297610,30.843930,-121.600713,15.267,33.172,0.253,0.287
20050418,014328,297641,30.843983,-121.600863,15.265,33.171,0.253,0.287
20050418,014357,297670,30.844001,-121.601025,15.265,33.170,0.259,0.294
20050418,014427,297700,30.844003,-121.601161,15.267,33.169,0.253,0.287
20050418,014457,297730,30.843983,-121.601261,15.273,33.164,0.253,0.287
20050418,014527,297760,30.843990,-121.601311,15.264,33.171,0.247,0.280
20050418,014558,297791,30.844041,-121.601328,15.261,33.174,0.259,0.294
20050418,014627,297820,30.844076,-121.601401,15.262,33.172,0.253,0.287
20050418,014657,297850,30.844070,-121.601486,15.264,33.171,0.253,0.288
20050418,014727,297880,30.844021,-121.601610,15.265,33.173,0.253,0.288
20050418,014757,297910,30.843958,-121.601753,15.269,33.164,0.253,0.288
20050418,014827,297940,30.843896,-121.601881,15.269,33.166,0.253,0.288
20050418,014858,297971,30.843923,-121.601983,15.270,33.166,0.253,0.287
20050418,014928,298001,30.844005,-121.602056,15.267,33.169,0.253,0.287
20050418,014957,298030,30.844050,-121.602136,15.264,33.172,0.253,0.286
20050418,015027,298060,30.844055,-121.602235,15.267,33.170,0.253,0.286
20050418,015057,298090,30.843993,-121.602353,15.262,33.173,0.253,0.286
20050418,015127,298120,30.843950,-121.602503,15.262,33.173,0.253,0.286
20050418,015157,298150,30.843905,-121.602610,15.260,33.175,0.253,0.286
20050418,015228,298181,30.843881,-121.602680,15.258,33.177,0.253,0.286
20050418,015257,298210,30.843875,-121.602758,15.263,33.172,0.253,0.286
20050418,015328,298241,30.843825,-121.602758,15.259,33.173,0.253,0.285
20050418,015357,298270,30.843771,-121.602815,15.263,33.169,0.253,0.285
20050418,015427,298300,30.843778,-121.602943,15.265,33.165,0.253,0.285
20050418,015457,298330,30.843761,-121.603103,15.269,33.165,0.247,0.278
20050418,015527,298360,30.843735,-121.603255,15.267,33.167,0.253,0.285
20050418,015558,298391,30.843725,-121.603388,15.273,33.161,0.253,0.285
20050418,015627,298420,30.843713,-121.603490,15.269,33.169,0.253,0.285
20050418,015657,298450,30.843698,-121.603591,15.269,33.166,0.253,0.285
20050418,015727,298480,30.843626,-121.603683,15.268,33.167,0.253,0.285
20050418,015757,298510,30.843481,-121.603765,15.269,33.168,0.253,0.285
20050418,015827,298541,30.843371,-121.603928,15.267,33.170,0.253,0.285
20050418,015857,298570,30.843410,-121.604175,15.262,33.173,0.247,0.278
20050418,015927,298600,30.843431,-121.604378,15.267,33.170,0.253,0.284
20050418,015957,298630,30.843451,-121.604386,15.266,33.170,0.253,0.284
20050418,020027,298660,30.843540,-121.604411,15.267,33.168,0.253,0.284
20050418,020057,298690,30.843611,-121.604490,15.264,33.165,0.253,0.284
20050418,020127,298720,30.843668,-121.604598,15.263,33.164,0.253,0.284
20050418,020157,298750,30.843758,-121.604741,15.263,33.166,0.247,0.277
20050418,020227,298780,30.843863,-121.604831,15.261,33.168,0.247,0.277
20050418,020257,298810,30.843985,-121.604940,15.260,33.165,0.259,0.291
20050418,020327,298840,30.844123,-121.605065,15.258,33.164,0.253,0.284
20050418,020358,298871,30.844238,-121.605231,15.256,33.166,0.253,0.284
20050418,020428,298901,30.844313,-121.605365,15.258,33.160,0.253,0.284
20050418,020457,298930,30.844330,-121.605473,15.257,33.159,0.253,0.284
20050418,020527,298960,30.844366,-121.605561,15.261,33.158,0.253,0.284
20050418,020557,298990,30.844435,-121.605663,15.258,33.160,0.247,0.277
20050418,020628,299021,30.844520,-121.605755,15.262,33.153,0.253,0.284
20050418,020657,299050,30.844591,-121.605900,15.262,33.154,0.253,0.284
20050418,020727,299080,30.844678,-121.606085,15.260,33.162,0.253,0.284
20050418,020757,299110,30.844785,-121.606230,15.260,33.163,0.253,0.284
20050418,020827,299140,30.844911,-121.606383,15.259,33.164,0.253,0.284
20050418,020857,299170,30.844943,-121.606526,15.260,33.165,0.253,0.284
20050418,020927,299200,30.844901,-121.606646,15.252,33.170,0.247,0.277
20050418,020957,299230,30.844821,-121.606805,15.252,33.169,0.253,0.284
20050418,021027,299260,30.844798,-121.607001,15.250,33.173,0.247,0.277
20050418,021057,299290,30.844863,-121.607221,15.246,33.174,0.253,0.284
20050418,021127,299320,30.844955,-121.607268,15.243,33.177,0.253,0.284
20050418,021157,299350,30.845095,-121.607248,15.241,33.176,0.253,0.284
20050418,021227,299380,30.845263,-121.607311,15.239,33.180,0.253,0.284
20050418,021258,299411,30.845438,-121.607480,15.242,33.174,0.247,0.277
20050418,021327,299440,30.845606,-121.607618,15.243,33.172,0.253,0.284
20050418,021358,299471,30.845718,-121.607716,15.246,33.166,0.247,0.277
20050418,021428,299501,30.845805,-121.607838,15.249,33.164,0.253,0.284
20050418,021457,299530,30.845918,-121.608010,15.249,33.164,0.247,0.277
20050418,021527,299560,30.846045,-121.608151,15.250,33.162,0.247,0.277
20050418,021557,299590,30.846185,-121.608303,15.247,33.166,0.253,0.283
20050418,021628,299621,30.846360,-121.608411,15.247,33.167,0.247,0.277
20050418,021658,299651,30.846533,-121.608538,15.244,33.169,0.253,0.283
20050418,021727,299680,30.846616,-121.608620,15.249,33.165,0.247,0.276
20050418,021757,299710,30.846688,-121.608658,15.243,33.171,0.247,0.276
20050418,021827,299740,30.846736,-121.608735,15.250,33.166,0.253,0.283
20050418,021857,299770,30.846798,-121.608868,15.249,33.167,0.253,0.283
20050418,021927,299800,30.846828,-121.609026,15.249,33.164,0.247,0.276
20050418,021957,299830,30.846821,-121.609176,15.246,33.168,0.253,0.283
20050418,022027,299860,30.846791,-121.609345,15.244,33.170,0.247,0.276
20050418,022057,299891,30.846748,-121.609598,15.244,33.173,0.247,0.276
20050418,022128,299921,30.846785,-121.609841,15.242,33.170,0.253,0.283
20050418,022157,299950,30.846780,-121.609988,15.243,33.172,0.253,0.283
20050418,022227,299980,30.846778,-121.610158,15.244,33.169,0.253,0.283
20050418,022258,300011,30.846823,-121.610321,15.243,33.171,0.247,0.276
20050418,022327,300040,30.846868,-121.610510,15.244,33.168,0.253,0.283
20050418,022357,300070,30.846890,-121.610658,15.243,33.173,0.253,0.283
20050418,022427,300100,30.846895,-121.610878,15.243,33.165,0.247,0.276
20050418,022457,300130,30.846911,-121.611071,15.245,33.168,0.247,0.276
20050418,022527,300160,30.846960,-121.611240,15.245,33.165,0.241,0.269
20050418,022557,300190,30.847073,-121.611400,15.243,33.164,0.259,0.289
20050418,022627,300220,30.847156,-121.611573,15.245,33.167,0.253,0.282
20050418,022657,300250,30.847185,-121.611696,15.243,33.168,0.247,0.275
20050418,022727,300280,30.847188,-121.611836,15.243,33.169,0.247,0.275
20050418,022757,300310,30.847221,-121.612026,15.242,33.170,0.253,0.282
20050418,022828,300341,30.847258,-121.612226,15.242,33.169,0.247,0.275
20050418,022857,300370,30.847308,-121.612400,15.240,33.171,0.253,0.282
20050418,022928,300401,30.847340,-121.612575,15.243,33.169,0.253,0.282
20050418,022957,300430,30.847381,-121.612766,15.240,33.172,0.253,0.282
20050418,023027,300460,30.847481,-121.612961,15.240,33.170,0.253,0.282
20050418,023058,300491,30.847556,-121.613156,15.242,33.169,0.253,0.282
20050418,023127,300520,30.847640,-121.613365,15.238,33.171,0.247,0.275
20050418,023157,300550,30.847725,-121.613511,15.232,33.175,0.253,0.282
20050418,023227,300580,30.847838,-121.613695,15.236,33.172,0.253,0.282
20050418,023257,300610,30.847973,-121.613913,15.227,33.178,0.247,0.275
20050418,023327,300640,30.848141,-121.614163,15.224,33.177,0.253,0.282
20050418,023358,300671,30.848316,-121.614411,15.225,33.174,0.253,0.282
20050418,023428,300701,30.848555,-121.614685,15.225,33.172,0.253,0.282
20050418,023458,300731,30.848820,-121.614990,15.224,33.172,0.247,0.275
20050418,023528,300761,30.849111,-121.615283,15.229,33.168,0.247,0.275
20050418,023557,300790,30.849356,-121.615618,15.219,33.175,0.253,0.282
20050418,023627,300820,30.849623,-121.615943,15.220,33.172,0.259,0.289
20050418,023657,300850,30.849870,-121.616278,15.219,33.171,0.253,0.282
20050418,023728,300881,30.850085,-121.616603,15.225,33.161,0.247,0.275
20050418,023757,300910,30.850333,-121.616928,15.221,33.168,0.247,0.275
20050418,023828,300941,30.850601,-121.617255,15.221,33.165,0.247,0.275
20050418,023857,300970,30.850848,-121.617596,15.223,33.166,0.247,0.275
20050418,023927,301000,30.851065,-121.617916,15.227,33.159,0.247,0.275
20050418,023958,301031,30.851256,-121.618235,15.229,33.158,0.253,0.282
20050418,024027,301060,30.851423,-121.618608,15.234,33.157,0.247,0.275
20050418,024057,301090,30.851631,-121.618955,15.232,33.160,0.253,0.282
20050418,024127,301120,30.851851,-121.619273,15.239,33.153,0.253,0.282
20050418,024157,301150,30.852105,-121.619611,15.238,33.157,0.247,0.275
20050418,024228,301181,30.852305,-121.619993,15.240,33.158,0.247,0.275
20050418,024257,301210,30.852480,-121.620233,15.240,33.161,0.247,0.275
20050418,024327,301241,30.852540,-121.620448,15.230,33.167,0.247,0.275
20050418,024357,301270,30.852551,-121.620661,15.230,33.165,0.253,0.282
20050418,024427,301300,30.852568,-121.620868,15.226,33.172,0.253,0.282
20050418,024457,301330,30.852636,-121.621136,15.227,33.171,0.253,0.282
20050418,024527,301360,30.852751,-121.621416,15.225,33.173,0.247,0.275
20050418,024558,301391,30.852890,-121.621690,15.221,33.172,0.253,0.282
20050418,024628,301421,30.852950,-121.621843,15.219,33.171,0.247,0.275
20050418,024657,301450,30.852946,-121.621980,15.218,33.171,0.247,0.275
20050418,024727,301480,30.852980,-121.622131,15.211,33.177,0.253,0.282
20050418,024757,301510,30.853015,-121.622305,15.213,33.174,0.247,0.275
20050418,024828,301541,30.853001,-121.622438,15.215,33.168,0.253,0.282
20050418,024857,301570,30.852985,-121.622578,15.213,33.167,0.253,0.282
20050418,024927,301600,30.853025,-121.622766,15.215,33.166,0.247,0.275
20050418,024957,301630,30.853038,-121.622986,15.212,33.167,0.247,0.275
20050418,025028,301661,30.853040,-121.623138,15.214,33.163,0.253,0.282